Track LING QIAO now! 10-day predictions LING QIAO is classified as:
1 40136U 14051A 26252.00515027 -.00000084 00000-0 -15107-4 0 9994 2 40136 98.7111 253.8827 0019787 289.0559 70.8480 14.30281449626982